www.pogodaiklimat.ru

Погода и климат >> Архив погоды >> Россия >> город Санкт-Петербург >> Санкт-Петербург


АРХИВ ПОГОДЫ в Санкт-Петербурге

Время (UTC), дата Ветер
(напр.,м/с)
 
Видим.   Явления Облачность Т
(С)
Тd
(С)
f
(%)
Тe
(С)
Тes
(С)
Комфортность P
(гПа)
Po
(гПа)
Тmin
(С)
Tmax
(С)
R
(мм)
R24
(мм)
S
(см)
06 13.11 ЮЗ 4 10 км 9/9 540 м
[Sc]
+4.1 +0.9 80 -0 -0 по сезону 1000.3 999.5 +2.6 0.4
09 13.11 ЮЗ 3 10 км 8/8 660 м
[Sc]
+4.1 +0.5 77 +1 +1 по сезону 1002.2 1001.4
12 13.11 ЮЗ 4 10 км 8/4 660 м
[Sc Ac As]
+5.4 -0.1 68 +2 +2 по сезону 1003.0 1002.3
15 13.11 ЮЗ 3 4000 м {дождь} 10/10 300 м
[Sc]
+3.7 +1.0 83 -0 -0 по сезону 1004.6 1003.8 0.8
18 13.11 ЮЗ 3 10 км {дождь} 10/10 600 м
[Sc]
+3.0 +0.7 85 -1 -1 по сезону 1005.9 1005.1 +5.4 0.8
21 13.11 ЮЗ 2 10 км {дождь} 10/10 570 м
[Sc]
+2.6 +0.9 89 -1 -1 по сезону 1006.5 1005.7
00 14.11 ЮЗ 1 10 км {дождь} 10/10 630 м
[Sc]
+2.3 +0.4 87 +1 +1 по сезону 1006.4 1005.6
03 14.11 ЮЗ 2 10 км 9/9 630 м
[Sc]
+1.9 +0.2 88 -1 -1 по сезону 1006.2 1005.4 +1.9 0.1
06 14.11 ЮЗ 2 10 км в посл. час дождь со снегом 10/10 240 м
[St]
+1.9 +0.9 93 -2 -2 по сезону 1006.2 1005.5 +1.4 1
09 14.11 ЮЗ 1 10 км 9/9 300 м
[Sc]
+2.1 +0.8 91 0 0 по сезону 1006.4 1005.6
12 14.11 З 3 10 км слабая морось {снег} 10/10 300 м
[St]
+2.1 +0.2 87 -2 -2 по сезону 1007.1 1006.3
15 14.11 З 1 10 км {ливн. осадки, снег} 10/10 600 м
[Sc Ac trans]
+1.8 -2.3 74 0 0 по сезону 1008.0 1007.3 2
18 14.11 ЮЗ 3 10 км слабый дождь {ливн. осадки, снег} 10/10 300 м
[Frnb Ns]
+2.3 +0.4 87 -2 -2 по сезону 1008.6 1007.9 +2.3 1
21 14.11 ЮЗ 3 10 км в посл. час дождь {морось} 10/10 480 м
[Sc]
+2.4 +0.9 90 -2 -2 по сезону 1009.2 1008.5
00 15.11 ЮЗ 3 10 км {дождь, морось} 8/8 570 м
[Sc]
+1.9 +0.6 91 -2 -2 по сезону 1009.9 1009.1
03 15.11 ЮЗ 3 10 км 10/10 300 м
[St]
+1.8 +0.1 88 -3 -3 по сезону 1010.3 1009.5 +1.7 0.8
06 15.11 ЮЗ 2 10 км 10/10 300 м
[Sc]
+2.1 0.0 86 -1 -1 по сезону 1010.4 1009.6 +1.7 0.7
09 15.11 Ю 3 10 км 10/10 400 м
[Sc]
+3.0 +0.1 81 -1 -1 по сезону 1010.1 1009.3
12 15.11 ЮЗ 3 4000 м слабый дождь 10/10 300 м
[Frnb Ns]
+3.1 +0.7 84 -1 -1 по сезону 1008.9 1008.2
15 15.11 ЮЗ 3 4000 м слабый дождь 10/10 200 м
[Frnb Ns]
+3.3 +1.7 89 -1 -1 по сезону 1007.9 1007.1 0.3
18 15.11 ЮЗ 3 10 км в посл. час дождь 10/8 450 м
[Sc As op]
+3.2 +1.2 87 -1 -1 по сезону 1008.0 1007.2 +3.6 0.4
21 15.11 ЮЗ 2 10 км 10/10 400 м
[Sc]
+3.4 +1.8 89 0 0 по сезону 1007.5 1006.7
00 16.11 Ю 2 4000 м слабый дождь 10/10 200 м
[Frnb Ns]
+3.8 +2.1 89 +1 +1 по сезону 1006.6 1005.8
03 16.11 ЮЗ 2 4000 м {дождь} 10/10 200 м
[Frnb Ns]
+3.7 +2.2 90 +1 +1 по сезону 1006.7 1006.0 +3.1 1
06 16.11 ЮЗ 2 4000 м слабый дождь 10/10 200 м
[Frnb Ns]
+3.6 +2.4 92 +1 +1 по сезону 1007.8 1007.0 +3.2 1
09 16.11 З 2 4000 м слабый дождь {ливн. осадки} 10/10 200 м
[Frnb Ns]
+1.3 +0.3 93 -2 -2 по сезону 1011.6 1010.8
12 16.11 СЗ 2 10 км {ливн. осадки, дождь} 8/8 500 м
[Sc]
+2.4 +0.6 88 -1 -1 по сезону 1013.0 1012.2
15 16.11 З 2 4000 м слабый ливневой дождь 10/10 300 м
[Cb calv]
+2.9 +1.6 91 -0 -0 по сезону 1014.3 1013.5
18 16.11 З 2 10 км {ливн. осадки, дождь} 8/8 540 м
[Sc]
+2.8 +1.1 89 -0 -0 по сезону 1014.9 1014.1 +3.6 2
21 16.11 З 2 10 км 6/6 600 м
[Sc]
+2.7 +1.5 92 -1 -1 по сезону 1015.2 1014.4
00 17.11 ЮЗ 2 10 км 10/10 500 м
[Sc]
+3.0 +0.7 85 0 0 по сезону 1014.9 1014.1
03 17.11 Ю 2 10 км 10/10 660 м
[Sc]
+3.1 +1.1 87 0 0 по сезону 1013.2 1012.4 +2.7 0.1
06 17.11 Ю 4 10 км 10/10 400 м
[Sc]
+3.3 +0.9 84 -1 -1 по сезону 1011.0 1010.2 +2.7
09 17.11 Ю 4 10 км 10/10 360 м
[Sc]
+3.6 +1.2 84 -1 -1 по сезону 1008.3 1007.6
12 17.11 Ю 5
{11}
10 км слабый ливневой дождь 10/10 300 м
[Cb cap]
+4.0 +1.6 84 -1 -1 по сезону 1005.1 1004.4
15 17.11 ЮЗ 4
{10}
10 км {ливн. осадки} 9/9 300 м
[Sc]
+4.9 +2.4 84 +1 +1 по сезону 1004.4 1003.7 0.7
18 17.11 ЮЗ 4
{10}
10 км {ливн. осадки, дождь} 6/6 300 м
[Sc]
+5.0 +2.0 81 +1 +1 по сезону 1004.8 1004.0 +5.5 0.0
21 17.11 ЮЗ 4
{10}
10 км 9/9 840 м
[Sc]
+4.5 +0.8 77 0 0 по сезону 1005.3 1004.5
00 18.11 ЮЗ 4 10 км 9/9 660 м
[Sc]
+4.7 +1.6 80 +1 +1 тепло 1004.7 1004.0
03 18.11 ЮЗ 4
{10}
10 км 8/8 630 м
[Sc]
+5.3 +2.2 80 +1 +1 тепло 1004.5 1003.7 +4.1
06 18.11 ЮЗ 4
{10}
10 км 10/10 300 м
[Sc]
+5.4 +2.4 81 +1 +1 тепло 1004.3 1003.6 +4.1
09 18.11 ЮЗ 3
{10}
10 км 10/8 300 м
[Sc Ac trans]
+5.7 +2.3 79 +2 +2 тепло 1004.7 1003.9
12 18.11 ЮЗ 4-10
{10}
10 км слабый дождь 10/10 300 м
[Sc]
+5.4 +2.1 79 +1 +1 по сезону 1004.1 1003.4
15 18.11 ЮЗ 4
{10}
10 км {дождь} 9/6 750 м
[Sc Ac trans]
+5.0 +1.2 76 +1 +1 по сезону 1004.0 1003.2 0.0
18 18.11 Ю 3 10 км {дождь} 9/8 450 м
[Sc Ac trans]
+4.2 +1.1 80 +1 +1 по сезону 1003.7 1002.9 +5.7 0.0
21 18.11 Ю 2 10 км 10/8 400 м
[Sc Ac trans]
+3.7 +1.0 83 +1 +1 тепло 1003.7 1002.9
00 19.11 Ю 3 10 км 10/10 570 м
[Sc]
+4.0 +1.4 83 0 0 по сезону 1003.7 1002.9
03 19.11 Ю 3 10 км 9/4 300 м
[Sc Ac trans]
+3.8 +0.5 79 0 0 по сезону 1002.9 1002.1 +3.6
06 19.11 ЮВ 2
{10}
10 км 8/5 600 м
[Sc Ac As]
+3.5 -0.1 77 +1 +1 тепло 1003.0 1002.3 +3.3
09 19.11 Ю 2 10 км 8/6 300 м
[Sc Ac As]
+2.8 -0.8 77 -0 0 по сезону 1003.3 1002.5
12 19.11 ЮВ 2 10 км 8/4 300 м
[Sc Ac As]
+3.0 -1.8 71 0 0 по сезону 1003.0 1002.2
15 19.11 ЮВ 2 10 км 9/4 700 м
[Sc Ac As]
+2.3 -2.0 73 -1 -1 по сезону 1003.0 1002.2
18 19.11 ЮВ 2 10 км 9/0
[Ac As]
+2.0 -2.5 72 -1 -1 по сезону 1002.8 1002.0 +3.5
21 19.11 ЮВ 1 10 км 10/10 630 м
[Sc]
+1.7 -2.6 73 0 0 по сезону 1003.0 1002.2
00 20.11 ЮВ 1 10 км 10/10 570 м
[Sc]
+1.0 -1.7 82 -1 -1 по сезону 1002.6 1001.8
03 20.11 В 2 4000 м слабый снег 10/10 300 м
[Frnb Ns]
+0.6 -0.8 90 -3 -3 по сезону 1002.7 1001.9 +0.4 0.6

 

Местоположение метеостанции Санкт-Петербург (город Санкт-Петербург, Россия): широта 59.97 долгота 30.30 высота над уровнем моря 6 м.

В архиве по умолчанию представлена погода в Санкт-Петербурге за последнюю неделю. Архивные данные за месяц целиком и за предыдущие месяцы, начиная с января 2011 года, Вы можете получить, выбрав интересующий диапазон дат из раскрывающегося списка и нажав кнопку "Ввод!".

Внимание! Время в таблицах - всемирное. Для получения местного времени необходимо прибавить поправку, которая в Санкт-Петербурге равна 3 ч.

Смотрите также архив погоды в соседних городах и на ближайших метеорологических станциях:

Погода в Воейково (город Санкт-Петербург, Россия) (22 км)
Погода в Ломоносове (город Санкт-Петербург, Россия) (29 км)
Погода в Кронштадте (город Санкт-Петербург, Россия) (30 км)
Погода в Шлиссельбурге (Ленинградская область, Россия) (39 км)
Погода в Рощино (Ленинградская область, Россия) (48 км)
Погода в Шепелево (Ленинградская область, Россия) (58 км)
Погода в Сосново (Ленинградская область, Россия) (65 км)
Погода в Белогорке (Ленинградская область, Россия) (70 км)
Погода в Волосово (Ленинградская область, Россия) (75 км)
Погода в Озерках (Ленинградская область, Россия) (77 км)

Пояснения к столбцам:

Ветер - указаны скорость ветра в м/с - средняя за 10 мин, порывы в срок и между сроками (в фигурных скобках) и направление, откуда дует ветер: С - северный, СВ - северо-восточный, В - восточный, ЮВ - юго-восточный, Ю - южный, ЮЗ - юго-западный, З - западный, СЗ - северо-западный.
Видимость - горизонтальная дальность видимости в метрах или километрах. При видимости от 1 до 10 км при отсутствии осадков обычно наблюдается дымка, при ухудшении видимости до 1 км и менее - туман. В сухую погоду видимость может ухудшаться дымом, пылью или мглою.
Явления - указаны атмосферные явления, наблюдавшиеся в срок или в последний час перед сроком; фигурными скобками обозначены явления, наблюдавшиеся между сроками (за 1-3 часа до срока); квадратными скобками обозначены град или гололедные отложения с указанием их диаметра в мм.
Облачность - указаны через наклонную черту общая и нижняя облачность в баллах и высота нижней границы облаков в метрах; квадратными скобками обозначены формы облаков: Ci - перистые, Cs - перисто-слоистые, Cc - перисто-кучевые, Ac - высококучевые, As - высокослоистые, Sc - слоисто-кучевые, Ns - слоисто-дождевые, Cu - кучевые, Cb - кучево-дождевые. Подробнее классификацию облаков см. в Атласе облаков (PDF).
T - Температура воздуха - температура, измеренная на высоте 2 м над землей.
Td - Температура точки росы - температура, при понижении до которой содержащийся в воздухе водяной пар достигнет насыщения.
f - Относительная влажность воздуха - влажноcть воздуха, измеренная на высоте 2 м над землей.
Te - Эффективная температура - температура, которую ощущает одетый по сезону человек в тени. Характеристика душности погоды. При расчете учитывается влияние влажности воздуха и скорости ветра на теплоощущения человека.
Tes - Эффективная температура на солнце - температура, которую ощущает человек, с поправкой на солнечный нагрев. Характеристика знойности погоды. Зависит от высоты солнца над горизонтом, облачности и скорости ветра. Ночью, в пасмурную погоду, а также при ветре 12 м/с и более поправка равна нулю.
P - Атмосферное давление - приведенное к уровню моря атмосферное давление.
Po - Атмосферное давление - измеренное на уровне метеостанции атмосферное давление.
Tmin - Минимальная температура - минимум температуры воздуха на высоте 2 м над землей.
Tmax - Максимальная температура - максимум температуры воздуха на высоте 2 м над землей.
R - Количество осадков - Количество выпавших осадков за период времени, мм. При наведении курсора мыши на число - период времени, за который выпало указанное количество осадков.
R24 - Количество осадков - Количество выпавших осадков за 24 часа, мм.
S - Снежный покров - Высота снежного покрова, см. При наведении курсора мыши на число - состояние снежного покрова и степень покрытия местности в баллах.